軌道要素
Epoch 2015 Oct. 25.0 TT = JDT 2457320.5
T 2015 Oct. 10.67759 TT Rudenko
q 2.1035374 (2000.0) P Q
n 0.14255114 Peri. 219.03048 +0.93027520 -0.36090722
a 3.6292948 Node 161.79110 +0.36658251 +0.90746679
e 0.4204005 Incl. 12.16213 +0.01432905 +0.21505813
P 6.91
From 102 observations 2008 Oct. 1-2022 Aug. 24, mean residual 0".6.
|